^^
B2 Weather Station Historical Data
Daily Summary for March 18, 2019 Units:  English    Metric   Both
Daily Weekly Monthly Yearly Custom
  High: Low: Average:
Temperature: 44.2 °F 27.9 °F 35.5 °F
Dew Point: 32.7 °F 25.6 °F 28.7 °F
Humidity: 92% 59% 77%
Wind Speed: 11.5mph 0.0mph 5.1mph
Wind Gust: 7.3mph - -
Wind- - WNW
Pressure: 30.43 in 30.34 in -
Precipitation: 0.00 in    
Historical Graphs
 
 
Tabular Data for March 18, 2019
Time Temperature Dew Point Pressure Wind Wind Speed Wind Gust Humidity Rainfall Rate (Hourly) solar
00:04 33.6 °F 27.5 °F 30.34 in NW 3.5 mph 1.8 mph 78% 0.00 in 0.00 W/m2
00:09 33.8 °F 27.4 °F 30.34 in WNW 4.6 mph 2.6 mph 77% 0.00 in 0.00 W/m2
00:14 33.9 °F 27.4 °F 30.34 in WNW 3.5 mph 1.2 mph 77% 0.00 in 0.00 W/m2
00:19 33.8 °F 27.4 °F 30.34 in NW 5.8 mph 1.2 mph 77% 0.00 in 0.00 W/m2
00:24 33.7 °F 27.3 °F 30.34 in WNW 3.5 mph 1.3 mph 77% 0.00 in 0.00 W/m2
00:29 33.5 °F 27.1 °F 30.34 in NW 3.5 mph 1.4 mph 77% 0.00 in 0.00 W/m2
00:34 33.4 °F 27.3 °F 30.34 in NW 3.5 mph 2.4 mph 78% 0.00 in 0.00 W/m2
00:39 33.3 °F 26.9 °F 30.34 in WNW 3.5 mph 2.4 mph 77% 0.00 in 0.00 W/m2
00:44 33.3 °F 27.2 °F 30.34 in WNW 3.5 mph 1.4 mph 78% 0.00 in 0.00 W/m2
00:49 33.2 °F 27.1 °F 30.34 in NW 3.5 mph 1.3 mph 78% 0.00 in 0.00 W/m2
00:54 33.1 °F 27.0 °F 30.34 in NW 4.6 mph 2.0 mph 78% 0.00 in 0.00 W/m2
00:59 33.1 °F 27.3 °F 30.34 in NW 4.6 mph 3.0 mph 79% 0.00 in 0.00 W/m2
01:04 33.1 °F 27.3 °F 30.34 in WNW 4.6 mph 2.2 mph 79% 0.00 in 0.00 W/m2
01:09 33.0 °F 27.2 °F 30.34 in WNW 5.0 mph 3.2 mph 79% 0.00 in 0.00 W/m2
01:14 33.0 °F 27.2 °F 30.34 in WNW 4.6 mph 1.9 mph 79% 0.00 in 0.00 W/m2
01:19 32.7 °F 27.2 °F 30.34 in NW 4.6 mph 2.3 mph 80% 0.00 in 0.00 W/m2
01:24 32.5 °F 27.0 °F 30.34 in WNW 4.6 mph 2.3 mph 80% 0.00 in 0.00 W/m2
01:29 32.4 °F 27.2 °F 30.34 in WNW 3.5 mph 2.0 mph 81% 0.00 in 0.00 W/m2
01:34 32.2 °F 27.0 °F 30.34 in NW 4.6 mph 1.5 mph 81% 0.00 in 0.00 W/m2
01:39 32.1 °F 26.9 °F 30.34 in West 4.6 mph 1.5 mph 81% 0.00 in 0.00 W/m2
01:44 32.0 °F 27.1 °F 30.34 in NW 3.5 mph 2.2 mph 82% 0.00 in 0.00 W/m2
01:49 31.9 °F 27.0 °F 30.35 in WNW 6.9 mph 1.8 mph 82% 0.00 in 0.00 W/m2
01:54 31.7 °F 27.1 °F 30.35 in NW 5.8 mph 2.7 mph 83% 0.00 in 0.00 W/m2
01:59 31.6 °F 27.0 °F 30.35 in West 5.0 mph 2.5 mph 83% 0.00 in 0.00 W/m2
02:04 31.5 °F 27.2 °F 30.35 in West 6.9 mph 1.8 mph 84% 0.00 in 0.00 W/m2
02:09 31.4 °F 27.1 °F 30.35 in WNW 5.8 mph 2.2 mph 84% 0.00 in 0.00 W/m2
02:14 31.4 °F 27.1 °F 30.35 in West 5.8 mph 2.9 mph 84% 0.00 in 0.00 W/m2
02:19 31.4 °F 27.4 °F 30.36 in NW 8.1 mph 4.3 mph 85% 0.00 in 0.00 W/m2
02:24 31.3 °F 27.3 °F 30.36 in NW 6.9 mph 2.3 mph 85% 0.00 in 0.00 W/m2
02:29 31.1 °F 27.4 °F 30.36 in WNW 5.8 mph 3.0 mph 86% 0.00 in 0.00 W/m2
02:34 31.0 °F 27.3 °F 30.36 in NW 6.9 mph 3.7 mph 86% 0.00 in 0.00 W/m2
02:39 30.8 °F 27.4 °F 30.36 in WNW 5.0 mph 2.6 mph 87% 0.00 in 0.00 W/m2
02:44 30.7 °F 27.3 °F 30.36 in WNW 4.6 mph 3.0 mph 87% 0.00 in 0.00 W/m2
02:49 30.5 °F 27.1 °F 30.36 in NW 5.8 mph 3.5 mph 87% 0.00 in 0.00 W/m2
02:54 30.5 °F 27.4 °F 30.36 in WNW 5.8 mph 3.0 mph 88% 0.00 in 0.00 W/m2
02:59 30.3 °F 27.2 °F 30.36 in WNW 3.5 mph 3.4 mph 88% 0.00 in 0.00 W/m2
03:04 30.3 °F 27.2 °F 30.36 in WNW 5.0 mph 3.6 mph 88% 0.00 in 0.00 W/m2
03:09 30.2 °F 27.3 °F 30.35 in NW 6.9 mph 3.2 mph 89% 0.00 in 0.00 W/m2
03:14 30.1 °F 27.3 °F 30.35 in NW 6.9 mph 4.2 mph 89% 0.00 in 0.00 W/m2
03:19 30.1 °F 27.3 °F 30.35 in WNW 5.8 mph 4.1 mph 89% 0.00 in 0.00 W/m2
03:24 30.0 °F 27.2 °F 30.35 in WNW 6.9 mph 3.6 mph 89% 0.00 in 0.00 W/m2
03:29 29.9 °F 27.1 °F 30.35 in WNW 5.8 mph 3.2 mph 89% 0.00 in 0.00 W/m2
03:34 29.8 °F 27.0 °F 30.35 in WNW 7.0 mph 3.9 mph 89% 0.00 in 0.00 W/m2
03:39 29.7 °F 26.9 °F 30.35 in West 3.5 mph 3.0 mph 89% 0.00 in 0.00 W/m2
03:44 29.6 °F 27.0 °F 30.35 in NW 8.1 mph 2.8 mph 90% 0.00 in 0.00 W/m2
03:49 29.5 °F 26.9 °F 30.35 in West 6.9 mph 4.3 mph 90% 0.00 in 0.00 W/m2
03:54 29.4 °F 26.8 °F 30.35 in NW 3.5 mph 1.9 mph 90% 0.00 in 0.00 W/m2
03:59 29.3 °F 26.7 °F 30.35 in WNW 7.0 mph 2.7 mph 90% 0.00 in 0.00 W/m2
04:04 29.2 °F 26.6 °F 30.35 in NW 5.8 mph 3.3 mph 90% 0.00 in 0.00 W/m2
04:09 29.1 °F 26.5 °F 30.35 in NW 6.9 mph 3.0 mph 90% 0.00 in 0.00 W/m2
04:14 29.1 °F 26.5 °F 30.35 in NW 5.8 mph 3.9 mph 90% 0.00 in 0.00 W/m2
04:19 29.0 °F 26.4 °F 30.35 in NW 5.8 mph 2.9 mph 90% 0.00 in 0.00 W/m2
04:24 28.9 °F 26.3 °F 30.35 in West 5.8 mph 2.4 mph 90% 0.00 in 0.00 W/m2
04:29 28.8 °F 26.2 °F 30.35 in WNW 4.6 mph 2.0 mph 90% 0.00 in 0.00 W/m2
04:34 28.8 °F 26.2 °F 30.35 in WNW 4.6 mph 2.6 mph 90% 0.00 in 0.00 W/m2
04:39 28.8 °F 26.2 °F 30.35 in WNW 6.9 mph 3.8 mph 90% 0.00 in 0.00 W/m2
04:44 28.8 °F 26.2 °F 30.35 in NW 6.0 mph 4.0 mph 90% 0.00 in 0.00 W/m2
04:49 28.8 °F 26.2 °F 30.35 in NW 4.6 mph 3.3 mph 90% 0.00 in 0.00 W/m2
04:54 28.8 °F 26.2 °F 30.35 in WNW 6.9 mph 2.4 mph 90% 0.00 in 0.00 W/m2
04:59 28.7 °F 26.1 °F 30.36 in WNW 4.6 mph 1.2 mph 90% 0.00 in 0.00 W/m2
05:04 28.7 °F 26.1 °F 30.35 in WNW 4.6 mph 2.0 mph 90% 0.00 in 0.00 W/m2
05:09 28.7 °F 26.1 °F 30.35 in WNW 3.5 mph 2.3 mph 90% 0.00 in 0.00 W/m2
05:14 28.7 °F 26.1 °F 30.36 in WNW 5.8 mph 4.1 mph 90% 0.00 in 0.00 W/m2
05:19 28.6 °F 26.0 °F 30.36 in WNW 4.6 mph 2.0 mph 90% 0.00 in 0.00 W/m2
05:24 28.6 °F 26.0 °F 30.36 in WNW 5.0 mph 3.3 mph 90% 0.00 in 0.00 W/m2
05:29 28.6 °F 26.0 °F 30.36 in WNW 6.9 mph 2.6 mph 90% 0.00 in 0.00 W/m2
05:34 28.5 °F 25.9 °F 30.36 in WNW 4.6 mph 2.6 mph 90% 0.00 in 0.00 W/m2
05:39 28.5 °F 25.9 °F 30.36 in West 5.8 mph 2.5 mph 90% 0.00 in 0.00 W/m2
05:44 28.4 °F 26.1 °F 30.36 in WNW 4.0 mph 1.5 mph 91% 0.00 in 0.00 W/m2
05:49 28.3 °F 26.0 °F 30.36 in West 4.0 mph 2.7 mph 91% 0.00 in 0.00 W/m2
05:54 28.3 °F 26.0 °F 30.36 in WNW 3.5 mph 2.1 mph 91% 0.00 in 0.00 W/m2
05:59 28.3 °F 26.0 °F 30.36 in NW 5.8 mph 2.8 mph 91% 0.00 in 0.00 W/m2
06:04 28.3 °F 26.0 °F 30.37 in WNW 3.5 mph 1.8 mph 91% 0.00 in 0.00 W/m2
06:09 28.3 °F 26.0 °F 30.37 in WNW 3.5 mph 2.0 mph 91% 0.00 in 0.00 W/m2
06:14 28.2 °F 25.9 °F 30.37 in NW 3.5 mph 3.1 mph 91% 0.00 in 0.00 W/m2
06:19 28.1 °F 25.8 °F 30.37 in WSW 5.8 mph 2.8 mph 91% 0.00 in 0.00 W/m2
06:24 28.0 °F 25.7 °F 30.37 in WNW 4.6 mph 1.6 mph 91% 0.00 in 0.00 W/m2
06:29 27.9 °F 25.6 °F 30.37 in WNW 5.0 mph 3.0 mph 91% 0.00 in 0.00 W/m2
06:34 28.0 °F 25.7 °F 30.37 in WNW 4.6 mph 1.8 mph 91% 0.00 in 0.00 W/m2
06:39 27.9 °F 25.6 °F 30.37 in West 2.3 mph 1.4 mph 91% 0.00 in 0.00 W/m2
06:44 27.9 °F 25.6 °F 30.38 in WNW 4.0 mph 1.8 mph 91% 0.00 in 0.00 W/m2
06:49 27.9 °F 25.6 °F 30.38 in WNW 4.6 mph 1.0 mph 91% 0.00 in 0.00 W/m2
06:54 27.9 °F 25.6 °F 30.38 in NW 4.6 mph 2.5 mph 91% 0.00 in 0.00 W/m2
06:59 27.9 °F 25.6 °F 30.38 in WNW 4.6 mph 2.3 mph 91% 0.00 in 0.00 W/m2
07:04 27.9 °F 25.6 °F 30.38 in NW 3.5 mph 1.4 mph 91% 0.00 in 5.00 W/m2
07:09 27.9 °F 25.6 °F 30.38 in NW 4.6 mph 2.1 mph 91% 0.00 in 11.00 W/m2
07:14 27.9 °F 25.6 °F 30.38 in NW 3.5 mph 3.1 mph 91% 0.00 in 14.00 W/m2
07:19 27.9 °F 25.6 °F 30.38 in WNW 4.6 mph 2.4 mph 91% 0.00 in 18.00 W/m2
07:24 28.1 °F 25.8 °F 30.38 in NW 4.6 mph 3.2 mph 91% 0.00 in 25.00 W/m2
07:29 28.3 °F 26.3 °F 30.38 in NW 5.8 mph 3.6 mph 92% 0.00 in 37.00 W/m2
07:34 28.5 °F 26.5 °F 30.38 in NW 5.8 mph 3.2 mph 92% 0.00 in 51.00 W/m2
07:39 28.6 °F 26.3 °F 30.38 in NW 10.4 mph 4.4 mph 91% 0.00 in 63.00 W/m2
07:44 28.8 °F 26.5 °F 30.39 in WNW 5.8 mph 4.1 mph 91% 0.00 in 79.00 W/m2
07:49 28.9 °F 26.6 °F 30.39 in NW 5.8 mph 4.2 mph 91% 0.00 in 95.00 W/m2
07:54 29.1 °F 26.8 °F 30.39 in WNW 5.8 mph 3.8 mph 91% 0.00 in 111.00 W/m2
07:59 29.3 °F 27.0 °F 30.39 in NW 5.8 mph 3.7 mph 91% 0.00 in 128.00 W/m2
08:04 29.5 °F 27.2 °F 30.39 in WNW 5.8 mph 3.8 mph 91% 0.00 in 146.00 W/m2
08:09 29.7 °F 27.4 °F 30.39 in NW 5.8 mph 3.0 mph 91% 0.00 in 165.00 W/m2
08:14 29.9 °F 27.3 °F 30.39 in WNW 8.1 mph 4.2 mph 90% 0.00 in 179.00 W/m2
08:19 30.1 °F 27.5 °F 30.39 in NW 6.9 mph 4.7 mph 90% 0.00 in 199.00 W/m2
08:24 30.3 °F 27.7 °F 30.39 in NW 7.0 mph 4.3 mph 90% 0.00 in 216.00 W/m2
08:29 30.5 °F 27.9 °F 30.39 in NW 8.1 mph 2.9 mph 90% 0.00 in 234.00 W/m2
08:34 30.8 °F 28.2 °F 30.40 in WNW 6.9 mph 4.3 mph 90% 0.00 in 250.00 W/m2
08:39 31.0 °F 28.1 °F 30.39 in NW 8.1 mph 4.0 mph 89% 0.00 in 267.00 W/m2
08:44 31.1 °F 28.2 °F 30.40 in NW 10.4 mph 5.1 mph 89% 0.00 in 279.00 W/m2
08:49 31.2 °F 28.1 °F 30.40 in NW 9.2 mph 6.0 mph 88% 0.00 in 295.00 W/m2
08:54 31.5 °F 28.4 °F 30.41 in NNW 8.1 mph 6.2 mph 88% 0.00 in 313.00 W/m2
08:59 31.8 °F 28.7 °F 30.41 in NNW 8.1 mph 3.6 mph 88% 0.00 in 332.00 W/m2
09:04 32.3 °F 29.1 °F 30.41 in NNW 8.1 mph 5.7 mph 88% 0.00 in 350.00 W/m2
09:09 32.7 °F 29.5 °F 30.41 in North 5.8 mph 5.5 mph 88% 0.00 in 366.00 W/m2
09:14 32.9 °F 29.5 °F 30.41 in NW 6.0 mph 3.4 mph 87% 0.00 in 378.00 W/m2
09:19 33.2 °F 29.8 °F 30.41 in North 7.0 mph 5.5 mph 87% 0.00 in 399.00 W/m2
09:24 33.2 °F 29.5 °F 30.42 in NW 10.4 mph 5.2 mph 86% 0.00 in 415.00 W/m2
09:29 33.3 °F 29.6 °F 30.42 in NNW 6.0 mph 5.5 mph 86% 0.00 in 422.00 W/m2
09:34 33.6 °F 30.1 °F 30.42 in NW 8.1 mph 4.4 mph 87% 0.00 in 445.00 W/m2
09:39 33.9 °F 30.2 °F 30.42 in NNW 5.8 mph 4.0 mph 86% 0.00 in 466.00 W/m2
09:44 34.1 °F 30.1 °F 30.42 in NW 5.8 mph 4.5 mph 85% 0.00 in 483.00 W/m2
09:49 34.4 °F 30.4 °F 30.42 in NNW 7.0 mph 5.3 mph 85% 0.00 in 503.00 W/m2
09:54 34.9 °F 30.6 °F 30.42 in NW 6.0 mph 3.5 mph 84% 0.00 in 519.00 W/m2
09:59 34.9 °F 30.0 °F 30.43 in NW 8.1 mph 6.3 mph 82% 0.00 in 555.00 W/m2
10:04 35.3 °F 30.4 °F 30.43 in NNW 6.9 mph 6.3 mph 82% 0.00 in 468.00 W/m2
10:09 35.2 °F 30.0 °F 30.43 in NNW 9.2 mph 4.9 mph 81% 0.00 in 401.00 W/m2
10:14 35.3 °F 30.1 °F 30.43 in NW 8.1 mph 4.4 mph 81% 0.00 in 550.00 W/m2
10:19 35.9 °F 30.9 °F 30.43 in NW 8.1 mph 4.2 mph 82% 0.00 in 575.00 W/m2
10:24 36.3 °F 31.0 °F 30.43 in NNW 8.1 mph 4.4 mph 81% 0.00 in 587.00 W/m2
10:29 36.6 °F 31.0 °F 30.43 in NNW 6.0 mph 4.6 mph 80% 0.00 in 605.00 W/m2
10:34 36.5 °F 30.6 °F 30.43 in NNW 6.9 mph 4.1 mph 79% 0.00 in 615.00 W/m2
10:39 36.6 °F 30.4 °F 30.43 in NNW 6.9 mph 5.0 mph 78% 0.00 in 631.00 W/m2
10:44 36.9 °F 31.0 °F 30.43 in NW 5.8 mph 2.1 mph 79% 0.00 in 643.00 W/m2
10:49 37.3 °F 31.4 °F 30.43 in NW 4.6 mph 3.7 mph 79% 0.00 in 649.00 W/m2
10:54 37.3 °F 30.7 °F 30.43 in NW 6.9 mph 3.4 mph 77% 0.00 in 661.00 W/m2
10:59 37.4 °F 30.5 °F 30.43 in NW 6.9 mph 2.2 mph 76% 0.00 in 675.00 W/m2
11:04 37.7 °F 30.8 °F 30.43 in NW 6.9 mph 5.4 mph 76% 0.00 in 684.00 W/m2
11:09 38.0 °F 31.1 °F 30.43 in North 5.8 mph 3.9 mph 76% 0.00 in 693.00 W/m2
11:14 38.4 °F 31.2 °F 30.43 in NNW 4.6 mph 2.8 mph 75% 0.00 in 703.00 W/m2
11:19 38.9 °F 32.0 °F 30.43 in NW 9.2 mph 3.9 mph 76% 0.00 in 701.00 W/m2
11:24 39.1 °F 31.8 °F 30.43 in NW 6.9 mph 4.0 mph 75% 0.00 in 726.00 W/m2
11:29 39.3 °F 31.7 °F 30.43 in NW 8.1 mph 3.7 mph 74% 0.00 in 721.00 W/m2
11:34 39.4 °F 31.8 °F 30.43 in WNW 5.8 mph 3.5 mph 74% 0.00 in 765.00 W/m2
11:39 39.7 °F 31.8 °F 30.43 in West 6.0 mph 5.5 mph 73% 0.00 in 766.00 W/m2
11:44 39.4 °F 31.5 °F 30.43 in WNW 5.8 mph 3.5 mph 73% 0.00 in 791.00 W/m2
11:49 39.3 °F 31.4 °F 30.43 in NW 9.2 mph 5.7 mph 73% 0.00 in 773.00 W/m2
11:54 39.4 °F 31.5 °F 30.43 in North 6.9 mph 4.4 mph 73% 0.00 in 752.00 W/m2
11:59 39.4 °F 31.1 °F 30.43 in NW 10.4 mph 4.0 mph 72% 0.00 in 788.00 W/m2
12:04 39.5 °F 31.6 °F 30.43 in North 4.6 mph 2.0 mph 73% 0.00 in 766.00 W/m2
12:09 39.8 °F 32.5 °F 30.42 in WNW 4.6 mph 3.2 mph 75% 0.00 in 780.00 W/m2
12:14 40.0 °F 31.7 °F 30.42 in WSW 4.0 mph 2.0 mph 72% 0.00 in 798.00 W/m2
12:19 40.6 °F 32.3 °F 30.43 in West 7.0 mph 4.8 mph 72% 0.00 in 826.00 W/m2
12:24 40.6 °F 31.6 °F 30.42 in WNW 7.0 mph 4.8 mph 70% 0.00 in 835.00 W/m2
12:29 40.7 °F 31.7 °F 30.42 in NW 3.5 mph 1.8 mph 70% 0.00 in 838.00 W/m2
12:34 41.0 °F 32.0 °F 30.42 in North 5.8 mph 2.4 mph 70% 0.00 in 809.00 W/m2
12:39 41.5 °F 32.1 °F 30.42 in NW 8.1 mph 4.9 mph 69% 0.00 in 253.00 W/m2
12:44 41.5 °F 31.7 °F 30.42 in WNW 10.4 mph 6.3 mph 68% 0.00 in 185.00 W/m2
12:49 41.7 °F 32.3 °F 30.42 in WNW 9.2 mph 6.2 mph 69% 0.00 in 879.00 W/m2
12:54 42.1 °F 31.9 °F 30.42 in WNW 9.2 mph 6.5 mph 67% 0.00 in 888.00 W/m2
12:59 42.0 °F 31.1 °F 30.42 in SW 9.2 mph 6.7 mph 65% 0.00 in 893.00 W/m2
13:04 42.5 °F 31.6 °F 30.42 in WNW 8.1 mph 2.8 mph 65% 0.00 in 956.00 W/m2
13:09 42.2 °F 30.5 °F 30.42 in WSW 8.1 mph 5.6 mph 63% 0.00 in 970.00 W/m2
13:14 41.9 °F 29.8 °F 30.42 in NNW 4.0 mph 3.5 mph 62% 0.00 in 253.00 W/m2
13:19 41.8 °F 30.9 °F 30.41 in NNW 8.1 mph 5.4 mph 65% 0.00 in 309.00 W/m2
13:24 41.6 °F 29.5 °F 30.41 in NNW 7.0 mph 3.9 mph 62% 0.00 in 313.00 W/m2
13:29 41.8 °F 30.5 °F 30.41 in NW 11.5 mph 6.4 mph 64% 0.00 in 1005.00 W/m2
13:34 42.7 °F 31.0 °F 30.41 in NW 11.5 mph 6.3 mph 63% 0.00 in 1000.00 W/m2
13:39 43.7 °F 32.7 °F 30.41 in West 8.1 mph 6.4 mph 65% 0.00 in 1028.00 W/m2
13:44 44.2 °F 32.0 °F 30.41 in NNW 8.1 mph 4.9 mph 62% 0.00 in 457.00 W/m2
13:49 43.5 °F 30.1 °F 30.41 in NW 4.6 mph 3.0 mph 59% 0.00 in 353.00 W/m2
13:54 42.8 °F 30.7 °F 30.41 in WNW 6.9 mph 6.5 mph 62% 0.00 in 211.00 W/m2
13:59 42.1 °F 30.8 °F 30.41 in NW 9.2 mph 3.8 mph 64% 0.00 in 309.00 W/m2
14:04 42.8 °F 32.2 °F 30.41 in West 9.2 mph 7.3 mph 66% 0.00 in 896.00 W/m2
14:09 42.4 °F 30.7 °F 30.41 in WNW 6.0 mph 6.1 mph 63% 0.00 in 183.00 W/m2
14:14 41.8 °F 30.5 °F 30.41 in NW 9.2 mph 5.0 mph 64% 0.00 in 269.00 W/m2
14:20 42.1 °F 31.2 °F 30.40 in West 6.0 mph 6.5 mph 65% 0.00 in 295.00 W/m2
14:24 42.5 °F 30.8 °F 30.40 in NW 9.2 mph 5.7 mph 63% 0.00 in 919.00 W/m2
14:29 43.4 °F 32.4 °F 30.40 in WSW 6.9 mph 3.5 mph 65% 0.00 in 1039.00 W/m2
14:34 43.6 °F 30.6 °F 30.40 in WSW 10.4 mph 3.9 mph 60% 0.00 in 332.00 W/m2
14:39 42.8 °F 29.5 °F 30.40 in WNW 5.8 mph 2.8 mph 59% 0.00 in 276.00 W/m2
14:44 42.7 °F 29.4 °F 30.40 in West 8.1 mph 5.2 mph 59% 0.00 in 244.00 W/m2
14:49 42.4 °F 29.5 °F 30.40 in NW 6.0 mph 5.7 mph 60% 0.00 in 223.00 W/m2
14:54 42.2 °F 29.7 °F 30.39 in West 6.0 mph 4.0 mph 61% 0.00 in 229.00 W/m2
14:59 42.0 °F 29.5 °F 30.39 in WNW 9.2 mph 4.5 mph 61% 0.00 in 221.00 W/m2
15:04 42.0 °F 29.5 °F 30.39 in West 5.8 mph 3.1 mph 61% 0.00 in 239.00 W/m2
15:09 42.0 °F 29.9 °F 30.40 in WNW 5.8 mph 4.6 mph 62% 0.00 in 232.00 W/m2
15:14 42.2 °F 29.7 °F 30.39 in WSW 5.0 mph 3.9 mph 61% 0.00 in 269.00 W/m2
15:19 42.5 °F 30.0 °F 30.39 in WSW 5.8 mph 1.8 mph 61% 0.00 in 334.00 W/m2
15:24 42.7 °F 29.8 °F 30.39 in NNW 5.8 mph 4.2 mph 60% 0.00 in 258.00 W/m2
15:29 42.7 °F 30.6 °F 30.39 in West 5.0 mph 3.3 mph 62% 0.00 in 216.00 W/m2
15:34 42.7 °F 30.2 °F 30.39 in West 7.0 mph 5.4 mph 61% 0.00 in 265.00 W/m2
15:39 42.7 °F 29.8 °F 30.39 in NW 5.8 mph 2.9 mph 60% 0.00 in 278.00 W/m2
15:44 43.0 °F 30.9 °F 30.39 in WSW 9.2 mph 6.5 mph 62% 0.00 in 236.00 W/m2
15:49 42.8 °F 30.3 °F 30.39 in WSW 9.0 mph 5.3 mph 61% 0.00 in 223.00 W/m2
15:54 42.6 °F 30.5 °F 30.39 in West 10.4 mph 6.6 mph 62% 0.00 in 197.00 W/m2
15:59 42.3 °F 30.2 °F 30.39 in West 9.2 mph 3.8 mph 62% 0.00 in 234.00 W/m2
16:04 42.3 °F 30.6 °F 30.39 in SW 6.9 mph 4.1 mph 63% 0.00 in 185.00 W/m2
16:09 42.1 °F 30.0 °F 30.39 in WSW 7.0 mph 3.4 mph 62% 0.00 in 172.00 W/m2
16:14 42.1 °F 30.4 °F 30.39 in West 5.8 mph 3.0 mph 63% 0.00 in 179.00 W/m2
16:19 42.2 °F 30.1 °F 30.39 in WSW 5.8 mph 3.9 mph 62% 0.00 in 137.00 W/m2
16:24 42.3 °F 30.2 °F 30.39 in WNW 4.6 mph 3.8 mph 62% 0.00 in 172.00 W/m2
16:29 42.7 °F 30.6 °F 30.39 in WNW 4.6 mph 3.4 mph 62% 0.00 in 185.00 W/m2
16:34 42.8 °F 30.7 °F 30.39 in WNW 6.9 mph 4.4 mph 62% 0.00 in 178.00 W/m2
16:39 42.8 °F 31.1 °F 30.39 in West 11.5 mph 6.1 mph 63% 0.00 in 519.00 W/m2
16:44 43.2 °F 30.6 °F 30.39 in WSW 11.5 mph 6.2 mph 61% 0.00 in 186.00 W/m2
16:49 42.7 °F 29.8 °F 30.39 in WSW 11.5 mph 6.2 mph 60% 0.00 in 148.00 W/m2
16:54 42.3 °F 30.2 °F 30.39 in West 9.2 mph 4.0 mph 62% 0.00 in 98.00 W/m2
16:59 42.2 °F 30.5 °F 30.39 in WNW 4.6 mph 4.2 mph 63% 0.00 in 128.00 W/m2
17:04 42.0 °F 29.9 °F 30.39 in West 4.6 mph 2.4 mph 62% 0.00 in 137.00 W/m2
17:09 42.0 °F 29.9 °F 30.39 in West 4.6 mph 1.5 mph 62% 0.00 in 113.00 W/m2
17:14 41.8 °F 29.7 °F 30.39 in West 10.4 mph 5.0 mph 62% 0.00 in 144.00 W/m2
17:19 41.8 °F 30.5 °F 30.38 in WNW 3.5 mph 2.7 mph 64% 0.00 in 193.00 W/m2
17:24 42.4 °F 30.7 °F 30.38 in NNW 5.8 mph 2.9 mph 63% 0.00 in 346.00 W/m2
17:29 42.9 °F 30.8 °F 30.38 in WNW 5.0 mph 2.5 mph 62% 0.00 in 334.00 W/m2
17:34 42.7 °F 30.2 °F 30.39 in NW 5.8 mph 4.6 mph 61% 0.00 in 113.00 W/m2
17:39 42.1 °F 30.0 °F 30.39 in NW 6.9 mph 4.1 mph 62% 0.00 in 91.00 W/m2
17:44 41.7 °F 29.6 °F 30.39 in NW 5.8 mph 2.7 mph 62% 0.00 in 104.00 W/m2
17:49 41.6 °F 30.3 °F 30.39 in West 6.9 mph 3.1 mph 64% 0.00 in 214.00 W/m2
17:54 42.0 °F 30.7 °F 30.39 in WNW 7.0 mph 3.0 mph 64% 0.00 in 79.00 W/m2
17:59 41.9 °F 29.8 °F 30.39 in WNW 6.0 mph 4.0 mph 62% 0.00 in 60.00 W/m2
18:04 41.9 °F 29.8 °F 30.39 in NNW 4.6 mph 3.8 mph 62% 0.00 in 91.00 W/m2
18:09 41.8 °F 29.3 °F 30.39 in NW 5.8 mph 3.3 mph 61% 0.00 in 65.00 W/m2
18:14 41.6 °F 29.5 °F 30.39 in NW 5.8 mph 4.0 mph 62% 0.00 in 69.00 W/m2
18:19 41.5 °F 29.4 °F 30.39 in NW 6.0 mph 3.9 mph 62% 0.00 in 60.00 W/m2
18:24 41.3 °F 29.3 °F 30.39 in WNW 3.5 mph 2.5 mph 62% 0.00 in 40.00 W/m2
18:29 41.2 °F 29.2 °F 30.39 in WNW 2.3 mph 2.6 mph 62% 0.00 in 26.00 W/m2
18:34 40.9 °F 28.9 °F 30.39 in West 3.5 mph 3.0 mph 62% 0.00 in 23.00 W/m2
18:39 40.7 °F 28.3 °F 30.39 in WSW 4.6 mph 2.3 mph 61% 0.00 in 14.00 W/m2
18:44 40.5 °F 28.1 °F 30.39 in West 3.5 mph 1.6 mph 61% 0.00 in 9.00 W/m2
18:49 40.3 °F 27.9 °F 30.39 in West 2.3 mph 0.9 mph 61% 0.00 in 7.00 W/m2
18:54 40.0 °F 27.6 °F 30.39 in West 3.5 mph 0.8 mph 61% 0.00 in 5.00 W/m2
18:59 39.7 °F 27.7 °F 30.39 in WSW 3.5 mph 1.9 mph 62% 0.00 in 0.00 W/m2
19:04 39.5 °F 28.3 °F 30.39 in WSW 3.5 mph 1.4 mph 64% 0.00 in 0.00 W/m2
19:09 39.2 °F 28.4 °F 30.39 in WSW 4.0 mph 1.5 mph 65% 0.00 in 0.00 W/m2
19:14 39.0 °F 28.6 °F 30.39 in WSW 3.5 mph 1.0 mph 66% 0.00 in 0.00 W/m2
19:19 38.8 °F 28.4 °F 30.39 in WSW 3.5 mph 1.3 mph 66% 0.00 in 0.00 W/m2
19:24 38.7 °F 28.7 °F 30.39 in WSW 3.5 mph 1.8 mph 67% 0.00 in 0.00 W/m2
19:29 38.5 °F 28.5 °F 30.39 in WSW 3.5 mph 0.1 mph 67% 0.00 in 0.00 W/m2
19:34 38.3 °F 28.3 °F 30.40 in WSW 2.3 mph 0.8 mph 67% 0.00 in 0.00 W/m2
19:39 38.1 °F 28.1 °F 30.40 in WSW 2.3 mph 0.7 mph 67% 0.00 in 0.00 W/m2
19:44 37.9 °F 28.3 °F 30.40 in WSW 1.2 mph   68% 0.00 in 0.00 W/m2
19:49 37.7 °F 28.1 °F 30.40 in Calm     68% 0.00 in 0.00 W/m2
19:54 37.3 °F 28.1 °F 30.40 in Calm     69% 0.00 in 0.00 W/m2
19:59 37.0 °F 27.8 °F 30.40 in Calm     69% 0.00 in 0.00 W/m2
20:04 36.7 °F 28.2 °F 30.40 in WSW 1.2 mph   71% 0.00 in 0.00 W/m2
20:09 36.7 °F 28.2 °F 30.40 in Calm   0.1 mph 71% 0.00 in 0.00 W/m2
20:14 36.5 °F 28.0 °F 30.40 in WSW 1.2 mph 0.3 mph 71% 0.00 in 0.00 W/m2
20:19 36.4 °F 28.2 °F 30.41 in Calm     72% 0.00 in 0.00 W/m2
20:24 36.2 °F 28.0 °F 30.41 in WSW 2.3 mph 0.5 mph 72% 0.00 in 0.00 W/m2
20:29 36.1 °F 27.9 °F 30.41 in WSW 1.2 mph 0.3 mph 72% 0.00 in 0.00 W/m2
20:34 36.1 °F 27.9 °F 30.41 in Calm     72% 0.00 in 0.00 W/m2
20:39 36.0 °F 27.8 °F 30.41 in WSW 1.2 mph   72% 0.00 in 0.00 W/m2
20:44 36.0 °F 27.8 °F 30.41 in Calm     72% 0.00 in 0.00 W/m2
20:49 35.9 °F 27.7 °F 30.41 in Calm     72% 0.00 in 0.00 W/m2
20:54 35.8 °F 28.0 °F 30.41 in Calm     73% 0.00 in 0.00 W/m2
20:59 35.8 °F 28.0 °F 30.41 in Calm     73% 0.00 in 0.00 W/m2
21:04 35.9 °F 28.4 °F 30.41 in Calm     74% 0.00 in 0.00 W/m2
21:10 35.9 °F 28.4 °F 30.41 in Calm     74% 0.00 in 0.00 W/m2
21:14 36.0 °F 28.8 °F 30.41 in Calm     75% 0.00 in 0.00 W/m2
21:19 35.9 °F 28.4 °F 30.41 in Calm     74% 0.00 in 0.00 W/m2
21:24 35.7 °F 28.6 °F 30.41 in Calm     75% 0.00 in 0.00 W/m2
21:29 35.7 °F 28.9 °F 30.41 in Calm     76% 0.00 in 0.00 W/m2
21:34 35.7 °F 28.9 °F 30.41 in Calm     76% 0.00 in 0.00 W/m2
21:39 35.6 °F 28.8 °F 30.41 in Calm     76% 0.00 in 0.00 W/m2
21:44 35.3 °F 28.5 °F 30.41 in Calm     76% 0.00 in 0.00 W/m2
21:49 35.1 °F 28.3 °F 30.41 in Calm     76% 0.00 in 0.00 W/m2
21:54 34.7 °F 28.2 °F 30.41 in Calm     77% 0.00 in 0.00 W/m2
21:59 34.3 °F 27.8 °F 30.41 in WSW 1.2 mph 0.6 mph 77% 0.00 in 0.00 W/m2
22:04 34.2 °F 28.4 °F 30.41 in SW 1.2 mph 0.4 mph 79% 0.00 in 0.00 W/m2
22:09 34.2 °F 28.7 °F 30.41 in SW 2.3 mph 1.4 mph 80% 0.00 in 0.00 W/m2
22:14 34.2 °F 28.7 °F 30.41 in SW 3.5 mph 1.0 mph 80% 0.00 in 0.00 W/m2
22:19 34.2 °F 29.0 °F 30.41 in Calm     81% 0.00 in 0.00 W/m2
22:24 34.2 °F 29.0 °F 30.41 in Calm     81% 0.00 in 0.00 W/m2
22:29 34.2 °F 29.0 °F 30.41 in Calm     81% 0.00 in 0.00 W/m2
22:34 34.2 °F 29.0 °F 30.41 in Calm     81% 0.00 in 0.00 W/m2
22:39 34.1 °F 28.9 °F 30.41 in SW 1.2 mph 0.3 mph 81% 0.00 in 0.00 W/m2
22:44 34.1 °F 28.9 °F 30.41 in Calm     81% 0.00 in 0.00 W/m2
22:49 34.1 °F 29.2 °F 30.42 in SW 2.0 mph 0.9 mph 82% 0.00 in 0.00 W/m2
22:54 34.0 °F 29.1 °F 30.42 in Calm     82% 0.00 in 0.00 W/m2
22:59 34.0 °F 29.1 °F 30.42 in SW 1.2 mph   82% 0.00 in 0.00 W/m2
23:04 34.0 °F 29.1 °F 30.42 in SW 2.3 mph 0.4 mph 82% 0.00 in 0.00 W/m2
23:09 34.0 °F 29.1 °F 30.42 in SW 3.5 mph 0.8 mph 82% 0.00 in 0.00 W/m2
23:14 34.0 °F 29.1 °F 30.42 in SW 1.2 mph 0.2 mph 82% 0.00 in 0.00 W/m2
23:19 34.0 °F 29.1 °F 30.42 in SW 1.2 mph 0.1 mph 82% 0.00 in 0.00 W/m2
23:24 33.9 °F 29.0 °F 30.42 in Calm   0.1 mph 82% 0.00 in 0.00 W/m2
23:29 33.8 °F 28.9 °F 30.42 in Calm     82% 0.00 in 0.00 W/m2
23:34 33.8 °F 28.9 °F 30.42 in Calm     82% 0.00 in 0.00 W/m2
23:39 33.8 °F 28.9 °F 30.42 in Calm     82% 0.00 in 0.00 W/m2
23:44 33.8 °F 28.9 °F 30.42 in Calm     82% 0.00 in 0.00 W/m2
23:49 33.8 °F 28.9 °F 30.42 in SW 2.3 mph 0.1 mph 82% 0.00 in 0.00 W/m2
23:54 33.8 °F 28.9 °F 30.42 in SW 1.2 mph 0.1 mph 82% 0.00 in 0.00 W/m2
23:59 33.8 °F 28.9 °F 30.42 in Calm     82% 0.00 in 0.00 W/m2
Bourbonnais, Illinois, USA
Compliments of Weather Underground - 4 mb